| time (UTC) | temp F | wind direction | speed MPH | gust MPH | rain 1hr in | rain 24hr in | rain mn in | humidity % | barometer mb |
| 20260906213026 | 64 | 101 | 3.0 | 8.0 | 0.00 | 0.00 | 0.00 | 64 | 1014.2 |
| 20260906211524 | 64 | 66 | 1.0 | 9.0 | 0.00 | 0.00 | 0.00 | 65 | 1014.4 |
| 20260906210020 | 63 | 142 | 2.0 | 9.0 | 0.00 | 0.00 | 0.00 | 65 | 1014.6 |
| 20260906204520 | 64 | 149 | 2.0 | 10.0 | 0.00 | 0.00 | 0.00 | 64 | 1014.7 |
| 20260906203027 | 63 | 146 | 0.0 | 8.0 | 0.00 | 0.00 | 0.00 | 65 | 1014.7 |
| 20260906201515 | 63 | 117 | 1.0 | 10.0 | 0.00 | 0.00 | 0.00 | 65 | 1014.8 |
| 20260906200011 | 63 | 100 | 2.0 | 9.0 | 0.00 | 0.00 | 0.00 | 64 | 1014.9 |
| 20260906194509 | 63 | 103 | 3.0 | 10.0 | 0.00 | 0.00 | 0.00 | 64 | 1015.0 |
| 20260906193005 | 62 | 165 | 3.0 | 10.0 | 0.00 | 0.00 | 0.00 | 64 | 1015.1 |
| 20260906191503 | 61 | 85 | 2.0 | 8.0 | 0.00 | 0.00 | 0.00 | 65 | 1015.3 |
| 20260906190059 | 61 | 105 | 1.0 | 10.0 | 0.00 | 0.00 | 0.00 | 64 | 1015.3 |
| 20260906184555 | 60 | 86 | 1.0 | 10.0 | 0.00 | 0.00 | 0.00 | 63 | 1015.3 |
| 20260906183112 | 60 | 132 | 2.0 | 7.0 | 0.00 | 0.00 | 0.00 | 62 | 1015.3 |
| 20260906181554 | 60 | 88 | 2.0 | 8.0 | 0.00 | 0.00 | 0.00 | 61 | 1015.5 |
| 20260906174544 | 60 | 94 | 2.0 | 8.0 | 0.00 | 0.00 | 0.00 | 58 | 1015.7 |
| 20260906173041 | 59 | 132 | 2.0 | 7.0 | 0.00 | 0.00 | 0.00 | 57 | 1015.7 |
| 20260906171541 | 59 | 126 | 0.0 | 5.0 | 0.00 | 0.00 | 0.00 | 57 | 1015.8 |
| 20260906170010 | 59 | 141 | 2.0 | 7.0 | 0.00 | 0.00 | 0.00 | 57 | 1015.8 |
| 20260906164508 | 59 | 76 | 0.0 | 5.0 | 0.00 | 0.00 | 0.00 | 57 | 1015.9 |
| 20260906163037 | 59 | 159 | 2.0 | 7.0 | 0.00 | 0.00 | 0.00 | 57 | 1015.8 |
| 20260906161535 | 59 | 109 | 1.0 | 8.0 | 0.00 | 0.00 | 0.00 | 55 | 1015.8 |
| 20260906160028 | 59 | 159 | 1.0 | 5.0 | 0.00 | 0.00 | 0.00 | 53 | 1015.8 |
| 20260906154524 | 59 | 179 | 0.0 | 5.0 | 0.00 | 0.00 | 0.00 | 52 | 1015.8 |
| 20260906153021 | 59 | 140 | 0.0 | 5.0 | 0.00 | 0.00 | 0.00 | 51 | 1015.8 |
| 20260906151528 | 59 | 129 | 0.0 | 3.0 | 0.00 | 0.00 | 0.00 | 50 | 1015.8 |
| 20260906150017 | 59 | 110 | 0.0 | 4.0 | 0.00 | 0.00 | 0.00 | 50 | 1015.9 |
| 20260906144517 | 59 | 133 | 1.0 | 4.0 | 0.00 | 0.00 | 0.00 | 51 | 1016.0 |
| 20260906143015 | 59 | 104 | 1.0 | 4.0 | 0.00 | 0.00 | 0.00 | 49 | 1015.8 |
| 20260906141521 | 59 | 109 | 0.0 | 3.0 | 0.00 | 0.00 | 0.00 | 48 | 1015.9 |
| 20260906140032 | 59 | 126 | 0.0 | 4.0 | 0.00 | 0.00 | 0.00 | 48 | 1015.8 |
| 20260906134548 | 59 | 99 | 3.0 | 7.0 | 0.00 | 0.00 | 0.00 | 49 | 1015.7 |
| 20260906133041 | 59 | 103 | 1.0 | 3.0 | 0.00 | 0.00 | 0.00 | 47 | 1015.8 |
| 20260906131539 | 59 | 144 | 0.0 | 5.0 | 0.00 | 0.00 | 0.00 | 47 | 1015.8 |
| 20260906130039 | 59 | 169 | 2.0 | 7.0 | 0.00 | 0.00 | 0.00 | 48 | 1015.8 |
| 20260906124539 | 59 | 171 | 1.0 | 6.0 | 0.00 | 0.00 | 0.00 | 48 | 1015.7 |
| 20260906123041 | 59 | 115 | 0.0 | 9.0 | 0.00 | 0.00 | 0.00 | 49 | 1015.7 |
| 20260906121541 | 59 | 80 | 2.0 | 6.0 | 0.00 | 0.00 | 0.00 | 47 | 1015.7 |
| 20260906120032 | 59 | 153 | 0.0 | 5.0 | 0.00 | 0.00 | 0.00 | 45 | 1015.7 |
| 20260906114540 | 59 | 152 | 1.0 | 7.0 | 0.00 | 0.00 | 0.00 | 43 | 1015.6 |
| 20260906113044 | 59 | 110 | 0.0 | 4.0 | 0.00 | 0.00 | 0.00 | 42 | 1015.5 |
| 20260906111600 | 59 | 157 | 0.0 | 6.0 | 0.00 | 0.00 | 0.00 | 42 | 1015.5 |
| 20260906110100 | 59 | 133 | 0.0 | 3.0 | 0.00 | 0.00 | 0.00 | 42 | 1015.5 |
| 20260906104558 | 59 | 123 | 0.0 | 3.0 | 0.00 | 0.00 | 0.00 | 42 | 1015.4 |
| 20260906103057 | 59 | 155 | 1.0 | 7.0 | 0.00 | 0.00 | 0.00 | 42 | 1015.4 |
| 20260906101556 | 59 | 98 | 0.0 | 2.0 | 0.00 | 0.00 | 0.00 | 44 | 1015.3 |
| 20260906100055 | 59 | 96 | 1.0 | 5.0 | 0.00 | 0.00 | 0.00 | 43 | 1015.3 |
| 20260906094525 | 59 | 154 | 1.0 | 4.0 | 0.00 | 0.00 | 0.00 | 43 | 1015.4 |
| 20260906093025 | 59 | 136 | 0.0 | 4.0 | 0.00 | 0.00 | 0.00 | 44 | 1015.4 |
| 20260906091531 | 59 | 113 | 1.0 | 6.0 | 0.00 | 0.00 | 0.00 | 44 | 1015.5 |
| 20260906090025 | 59 | 107 | 0.0 | 0.0 | 0.00 | 0.00 | 0.00 | 45 | 1015.5 |
| 20260906084521 | 60 | 109 | 0.0 | 5.0 | 0.00 | 0.00 | 0.00 | 45 | 1015.3 |
| 20260906083021 | 60 | 65 | 0.0 | 4.0 | 0.00 | 0.00 | 0.00 | 47 | 1015.1 |
| 20260906081527 | 60 | 148 | 0.0 | 10.0 | 0.00 | 0.00 | 0.00 | 49 | 1015.0 |
| 20260906080016 | 60 | 133 | 0.0 | 8.0 | 0.00 | 0.00 | 0.00 | 50 | 1015.0 |
| 20260906074520 | 60 | 155 | 1.0 | 7.0 | 0.00 | 0.00 | 0.00 | 53 | 1015.0 |
| 20260906073015 | 60 | 96 | 2.0 | 6.0 | 0.00 | 0.00 | 0.00 | 54 | 1014.9 |
| 20260906071512 | 60 | 136 | 3.0 | 9.0 | 0.00 | 0.00 | 0.00 | 54 | 1015.0 |
| 20260906070011 | 60 | 65 | 1.0 | 6.0 | 0.00 | 0.00 | 0.00 | 55 | 1014.8 |
| 20260906064510 | 60 | 149 | 1.0 | 9.0 | 0.00 | 0.00 | 0.00 | 57 | 1014.8 |
| 20260906063010 | 60 | 164 | 2.0 | 8.0 | 0.00 | 0.00 | 0.00 | 59 | 1014.7 |
| 20260906061507 | 60 | 85 | 0.0 | 10.0 | 0.00 | 0.00 | 0.00 | 61 | 1014.7 |
| 20260906060015 | 60 | 155 | 0.0 | 7.0 | 0.00 | 0.00 | 0.00 | 61 | 1014.5 |
| 20260906054505 | 60 | 116 | 1.0 | 6.0 | 0.00 | 0.00 | 0.00 | 61 | 1014.4 |
| 20260906053013 | 61 | 146 | 0.0 | 4.0 | 0.00 | 0.00 | 0.00 | 63 | 1014.2 |
| 20260906051504 | 61 | 184 | 0.0 | 6.0 | 0.00 | 0.00 | 0.00 | 64 | 1014.0 |
| 20260906050008 | 61 | 145 | 0.0 | 7.0 | 0.00 | 0.00 | 0.00 | 65 | 1014.0 |
| 20260906044502 | 62 | 157 | 2.0 | 7.0 | 0.00 | 0.00 | 0.00 | 66 | 1013.9 |
| 20260906043002 | 62 | 121 | 0.0 | 4.0 | 0.00 | 0.00 | 0.00 | 67 | 1013.9 |
| 20260906041559 | 63 | 242 | 1.0 | 5.0 | 0.00 | 0.00 | 0.00 | 67 | 1013.7 |
| 20260906040058 | 64 | 164 | 0.0 | 4.0 | 0.00 | 0.00 | 0.00 | 68 | 1013.5 |
| 20260906034557 | 65 | 165 | 0.0 | 0.0 | 0.00 | 0.00 | 0.00 | 68 | 1013.2 |
| 20260906033157 | 66 | 165 | 0.0 | 6.0 | 0.00 | 0.00 | 0.00 | 67 | 1013.0 |
| 20260906031601 | 67 | 149 | 0.0 | 8.0 | 0.00 | 0.00 | 0.00 | 66 | 1012.9 |
| 20260906030053 | 67 | 136 | 1.0 | 6.0 | 0.00 | 0.00 | 0.00 | 65 | 1012.9 |
| 20260906024552 | 68 | 193 | 0.0 | 5.0 | 0.00 | 0.00 | 0.00 | 65 | 1012.7 |
| 20260906023052 | 68 | 184 | 2.0 | 8.0 | 0.00 | 0.00 | 0.00 | 64 | 1012.6 |
| 20260906021521 | 69 | 218 | 1.0 | 11.0 | 0.00 | 0.00 | 0.00 | 63 | 1012.5 |
| 20260906020021 | 70 | 155 | 0.0 | 5.0 | 0.00 | 0.00 | 0.00 | 61 | 1012.4 |
| 20260906014518 | 72 | 246 | 1.0 | 8.0 | 0.00 | 0.00 | 0.00 | 57 | 1012.3 |
| 20260906013016 | 73 | 209 | 1.0 | 7.0 | 0.00 | 0.00 | 0.00 | 53 | 1012.4 |
| 20260906011518 | 76 | 171 | 0.0 | 0.0 | 0.00 | 0.00 | 0.00 | 51 | 1012.3 |
| 20260906010015 | 77 | 175 | 0.0 | 2.0 | 0.00 | 0.00 | 0.00 | 50 | 1012.2 |
| 20260906004513 | 78 | 175 | 0.0 | 2.0 | 0.00 | 0.00 | 0.00 | 50 | 1012.1 |
| 20260906003012 | 78 | 175 | 0.0 | 1.0 | 0.00 | 0.00 | 0.00 | 51 | 1012.2 |
| 20260906001509 | 78 | 178 | 0.0 | 4.0 | 0.00 | 0.00 | 0.00 | 51 | 1012.3 |
| 20260906000009 | 80 | 127 | 0.0 | 2.0 | 0.00 | 0.00 | 0.00 | 50 | 1012.3 |
| 20260905234508 | 80 | 128 | 0.0 | 0.0 | 0.00 | 0.00 | 0.00 | 50 | 1012.5 |
| 20260905233105 | 80 | 167 | 0.0 | 3.0 | 0.00 | 0.00 | 0.00 | 49 | 1012.7 |
| 20260905231502 | 81 | 195 | 0.0 | 5.0 | 0.00 | 0.00 | 0.00 | 48 | 1012.8 |
| 20260905224701 | 80 | 177 | 0.0 | 2.0 | 0.00 | 0.00 | 0.00 | 47 | 1013.2 |
| 20260905223058 | 81 | 298 | 0.0 | 1.0 | 0.00 | 0.00 | 0.00 | 47 | 1013.3 |
| 20260905221603 | 80 | 298 | 0.0 | 0.0 | 0.00 | 0.00 | 0.00 | 47 | 1013.4 |
| 20260905220104 | 81 | 298 | 0.0 | 0.0 | 0.00 | 0.00 | 0.00 | 47 | 1013.7 |
| 20260905214550 | 80 | 298 | 0.0 | 2.0 | 0.00 | 0.00 | 0.00 | 49 | 1013.8 |